Regional Weather Roundup
Issued by NWS

Home | Current Version | Previous Version | Graphics & Text | Print | Product List | Glossary Off
Versions: 1 2 3 4 5 6 7 8 9 10 11 12 13 14 15 16 17 18 19 20 21 22 23 24 25 26 27 28 29 30 31 32 33 34 35 36 37 38 39 40 41 42 43 44 45 46 47 48 49 50

000
ASUS43 KMKX 071011
RWRWI

WISCONSIN REGIONAL WEATHER ROUNDUP
NATIONAL WEATHER SERVICE MILWAUKEE/SULLIVAN WI
500 AM CDT TUE JUL 07 2015

NOTE: "FAIR" INDICATES FEW OR NO CLOUDS BELOW 12,000 FEET WITH NO
SIGNIFICANT WEATHER AND/OR OBSTRUCTIONS TO VISIBILITY.

WIZ001-002-006>008-014>016-023>028-071100-
NORTHWEST WISCONSIN

CITY           SKY/WX    TMP DP  RH WIND       PRES   REMARKS
SUPERIOR ARPT  CLOUDY    55  45  67 N8        30.09S
ASHLAND        CLOUDY    52  48  86 NW5       30.06R
HAYWARD        CLOUDY    53  44  71 N6        30.07S
SIREN          CLOUDY    54  45  73 N7        30.09R
CUMBERLAND     CLOUDY    50  46  87 N7        30.08R
RICE LAKE      PTCLDY    49  45  86 CALM      30.09R
CHETEK         CLEAR     51  47  86 N5        30.07R
LADYSMITH      CLEAR     50  46  84 N10       30.07R
EAU CLAIRE     CLEAR     50  45  83 NW3       30.05R
MENOMONIE      CLEAR     53  47  82 NW5       30.07R
NEW RICHMOND   CLEAR     50  49  95 N6        30.09R
OSCEOLA        CLEAR     51  51 100 NW6       30.12R
$$

WIZ003>005-009-010-017-018-071100-
NORTH CENTRAL WISCONSIN

CITY           SKY/WX    TMP DP  RH WIND       PRES   REMARKS
MANITOWISH WTR CLOUDY    49  48  97 N3        30.03S
ARBOR VITAE    CLEAR     49  47  93 N3        30.03R
WOODRUFF       CLEAR     49  47  93 N3        30.03R
RHINELANDER    MOCLDY    51  43  74 N8        30.02R
EAGLE RIVER    CLOUDY    50  46  87 N7        30.01R
LAND O LAKES   CLOUDY    50  45  81 N6        30.03R
PHILLIPS       CLEAR     47  46  99 NW5       30.03R
TOMAHAWK       CLEAR     47  45  90 NW3       30.02R
MEDFORD        CLEAR     49  47  91 N7        30.02R
MERRILL        CLEAR     49  49  97 N3        30.02R
$$

WIZ029-030-035-036-043>047-071100-
CENTRAL WISCONSIN

CITY           SKY/WX    TMP DP  RH WIND       PRES   REMARKS
WAUSAU         CLEAR     54  48  80 N9        29.99R
MOSINEE        CLEAR     52  50  93 N7        30.01R
MARSHFIELD     CLEAR     53  47  79 N7        30.01R
STEVENS POINT  CLOUDY    54  52  94 NW7       29.99R FOG
WAUPACA        CLEAR     58  56  95 NW5       29.97R FOG
WAUTOMA        CLEAR     57  57 100 N6        29.97R FOG
WISC RAPIDS    PTCLDY    55  50  83 N9        30.00R
CAMP DOUGLAS   CLEAR     54  54 100 NW8       29.99R FOG
$$

WIZ011>013-019>022-031-037>040-048>050-071100-
NORTHEAST WISCONSIN

CITY           SKY/WX    TMP DP  RH WIND       PRES   REMARKS
ANTIGO         CLOUDY    52  49  89 N10       29.99R
SHAWANO        CLOUDY    60  52  75 NE10      29.97R
OCONTO         CLOUDY    56  50  79 N7        29.95R
STURGEON BAY   CLOUDY    57  46  67 N15G21    29.96R
GREEN BAY      CLOUDY    60  50  69 N16       29.95R
MANITOWOC      CLOUDY    58  55  90 MISG        N/A
APPLETON       CLOUDY    59  52  77 N10       29.95R HAZE
CLINTONVILLE   CLOUDY    59  52  77 N6        29.97R
OSHKOSH        CLOUDY    61  56  83 N10       29.94R HAZE
$$

WIZ032>034-041-042-053>061-071100-
SOUTHWEST WISCONSIN

CITY           SKY/WX    TMP DP  RH WIND       PRES   REMARKS
LA CROSSE      CLOUDY    59  53  80 N12       30.02R
SPARTA         MOCLDY    56  54  91 N8        30.02R FOG
VIROQUA        CLOUDY    58  58 100 N9        30.01R
BOSCOBEL       CLEAR     59  54  83 N7        29.98R HAZE
PRAIRIE DU CHI CLEAR     59  55  88 NW3       29.99R FOG
PLATTEVILLE    CLEAR     58  56  95 N9        29.97R
$$

WIZ056-057-062-063-064-067-068-071100-
SOUTH CENTRAL WISCONSIN

CITY           SKY/WX    TMP DP  RH WIND       PRES   REMARKS
REEDSBURG      PTCLDY    56  55  95 N8        29.97R FOG
BARABOO/DELLS  CLOUDY    57  54  91 N7        29.96S FOG
LONE ROCK      CLOUDY    59  55  87 N7G18     29.98R FOG
MINERAL POINT  PTCLDY    59  55  88 N9G16     29.97R FOG
MADISON        CLOUDY    60  57  89 N6        29.93R FOG
MIDDLETON      MOCLDY    60  59  95 N6        29.95R
WATERTOWN      CLOUDY    59  59 100 N8        29.92R FOG
MONROE         PTCLDY    59  55  88 N13       29.93R FOG
JANESVILLE     CLOUDY    59  57  94 NE17      29.91R FOG
$$

WIZ051-052-058>065-066-070>072-071100-
SOUTHEAST WISCONSIN

CITY           SKY/WX    TMP DP  RH WIND       PRES   REMARKS
MILWAUKEE      LGT RAIN  58  56  93 N12       29.91R FOG
WAUKESHA       CLOUDY    57  55  94 N7        29.93R
MILWAUKEE/TIMM CLOUDY    59  55  88 N9        29.92R
RACINE         LGT RAIN  59  56  89 N21G29    29.92R FOG
BURLINGTON     CLOUDY    58  57  97 N5        29.92R FOG
KENOSHA        LGT RAIN  59  57  93 N13       29.91R FOG
FOND DU LAC    CLOUDY    61  57  87 N8        29.93R FOG
SHEBOYGAN      CLOUDY    58  55  90 N7        29.92R FOG
WEST BEND      CLOUDY    59  55  88 N6        29.92R FOG
JUNEAU         CLOUDY    59  56  91 N9        29.94R FOG
$$

LSZ147-162-071100-
LAKE SUPERIOR

STATION/POSITION TIME  TEMP    WIND        PRES    WAVE
                       AIR SEA DIR/SP/G            HT/PER
                 (UTC) (F)     (DEG/KT/KT) (MB)    (FT/S)
W MID LAKE BUOY  0950   46 39  330/  8/ 10 1017.6R   1/ 3
DEVILS ISLAND    1000   56     320/ 14/ 16 1018.4R
PORT WING        0900   57     330/ 14/ 16 1018.3R
SAXON HARBOR     0900   58     350/ 13/ 17 1016.9
$$

LMZ867-665-643>646-071100-
LAKE MICHIGAN

STATION/POSITION TIME  TEMP    WIND        PRES    WAVE
                       AIR SEA DIR/SP/G            HT/PER
                 (UTC) (F)     (DEG/KT/KT) (MB)    (FT/S)
CHAMBERS ISLAND  0900   58     330/ 19/ 23 1013.2R
N MID LAKE BUOY  0950   53 53  320/ 16/ 19 1012.6R   3/ 4
NORTHPORT PIER   0900   58     340/ 20/ 24 1012.9R
SISTER BAY       0914   57     360/ 18/ 26   N/A
ALGOMA LAKESHORE 0911           20/  9/ 13   N/A
KEWAUNEE LAKESHO 0900   58     360/  5/  9 1012.6R
SHEBOYGAN LAKESH 1000   57      20/ 15/ 17 1013.4R
PORT WASHINGTON  0900   61     350/  5/ 11 1013.2
ATWATER BUOY     1000   58 58   10/ 17/ 27 1014.0R
MILWAUKEE LAKESH 0900   59      20/ 12/ 15   N/A
KENOSHA   LAKESH 1000   58      10/ 20/ 26 1012.5R
$$

TC  - TEMPERATURE IN CELSIUS
VSB - VISIBILITY IN STATUTE MILES
WCI - WIND CHILL INDEX
HX  - HEAT INDEX




USA.gov is the U.S. government's official web portal to all federal, state and local government web resources and services.